1504980001.05,29328,15.31,73308.5,4.03,3.23,3.19,0,*71
1504980002.31,29329,15.31,73304.5,4.01,3.07,3.07,0,*7B
1504980003.58,29330,15.31,73310.0,4.01,3.15,3.15,0,*73
1504980004.81,29331,15.31,73306.0,4.01,3.25,3.19,0,*7D
1504980006.03,29332,15.31,73306.8,4.03,3.23,3.23,0,*73
1504980007.21,29333,15.31,73306.0,4.03,3.29,3.29,0,*72
1504980008.46,29334,15.31,73306.3,4.01,3.19,3.15,0,*7B
1504980009.72,29335,15.31,73312.3,4.05,3.23,3.23,0,*72
1504980010.9,29336,15.31,73316.0,4.03,3.29,3.29,0,*77
1504980012.12,29337,15.31,73324.0,4.03,3.23,3.23,0,*76
1504980013.35,29338,15.31,73322.0,4.03,3.19,3.11,0,*71
1504980014.57,29339,15.31,73322.8,4.03,3.11,3.11,0,*78
1504980015.8,29340,15.31,73326.8,4.03,3.19,3.11,0,*7E
1504980017.02,29341,15.31,73328.8,4.03,3.19,3.11,0,*7F
1504980018.24,29342,15.31,73324.8,4.03,3.19,3.19,0,*74
1504980019.46,29343,15.31,73330.0,4.03,3.19,3.19,0,*75
1504980020.67,29344,15.31,73324.5,4.03,3.19,3.19,0,*72
1504980021.89,29345,15.31,73326.8,4.03,3.19,3.19,0,*73
1504980023.14,29346,15.31,73322.3,4.05,3.33,3.23,0,*77
1504980024.39,29347,15.31,73330.3,4.05,3.33,3.23,0,*76
1504980025.64,29348,15.31,73330.5,4.05,3.33,3.33,0,*78
1504980026.87,29349,15.31,73332.8,4.07,3.33,3.33,0,*7B
1504980028.1,29350,15.31,73334.0,4.05,3.33,3.25,0,*76
1504980029.31,29351,15.31,73332.8,4.05,3.25,3.25,0,*70
1504980030.57,29352,15.31,73328.8,4.05,3.15,3.23,0,*76
1504980031.83,29353,15.31,73332.8,4.05,3.15,3.23,0,*77
1504980033.03,29354,15.31,73332.5,4.07,3.25,3.23,0,*71
1504980034.28,29355,15.31,73338.0,4.05,3.33,3.33,0,*74
1504980035.49,29356,15.31,73336.8,4.07,3.23,3.25,0,*73
1504980036.76,29357,15.31,73338.0,4.05,3.15,3.15,0,*76
1504980037.93,29358,15.31,73334.8,4.07,2.99,2.99,0,*7B
1504980039.19,29359,15.31,73336.8,4.05,3.23,3.15,0,*7D
1504980040.45,29360,15.31,73332.0,4.05,2.69,2.77,0,*7D
1504980041.71,29361,15.31,73336.3,4.05,2.77,2.81,0,*7A
1504980042.91,29362,15.31,73342.5,4.05,2.99,2.91,0,*78
1504980044.16,29363,15.31,73338.0,4.05,2.69,2.77,0,*7E
1504980045.42,29364,15.31,73334.5,4.05,2.89,2.89,0,*76
1504980046.63,29365,15.31,73340.0,4.05,2.99,2.91,0,*7F
1504980047.89,29366,15.31,73336.0,4.05,2.81,2.89,0,*7C
1504980049.11,29367,15.31,73336.0,4.03,2.89,2.77,0,*72
1504980050.29,29368,15.31,73332.5,4.03,2.95,2.99,0,*70
1504980051.51,29369,15.31,73334.3,4.03,3.11,3.11,0,*7D
1504980052.71,29370,15.31,73338.5,4.03,2.99,3.07,0,*73
1504980053.95,29371,15.31,73336.8,4.03,3.07,3.07,0,*74
1504980055.17,29372,15.31,73338.3,4.03,3.19,3.19,0,*77
1504980056.39,29373,15.31,73342.8,4.03,3.11,3.23,0,*77
1504980057.61,29374,15.31,73342.3,4.03,3.19,3.23,0,*78
1504980058.79,29375,15.31,73346.3,4.03,3.29,3.29,0,*70
1504980059.97,29376,15.31,73342.3,4.03,3.29,3.29,0,*73
1504980061.15,29377,15.31,73338.8,4.03,3.29,3.29,0,*72
1504980062.35,29378,15.31,73338.5,4.03,3.29,3.33,0,*76
1504980063.61,29379,15.31,73336.5,4.05,3.33,3.33,0,*7A
1504980064.87,29380,15.31,73330.8,4.05,3.23,3.15,0,*79
1504980066.1,29381,15.31,73336.5,4.05,3.25,3.23,0,*7B
1504980067.35,29382,15.31,73332.5,4.05,3.03,3.11,0,*7D
1504980068.56,29383,15.31,73334.5,4.03,2.99,3.07,0,*7F
1504980069.78,29384,15.31,73328.0,4.03,2.77,2.89,0,*7F
1504980071.04,29385,15.31,73324.3,4.05,2.39,2.59,0,*7F
1504980072.27,29386,15.31,73328.0,4.05,2.05,2.27,0,*7A
1504980073.5,29387,15.31,73316.5,4.05,1.79,1.93,0,*7F
1504980074.72,29388,15.31,73316.0,4.07,0.87,1.37,0,*4C
1504980075.98,29389,15.31,73314.5,4.05,-1.13,0.83,0,*60
1504980077.22,29390,15.31,73314.3,4.01,-0.73,0.75,0,*52
1504980078.43,29391,15.31,73304.5,4.03,0.71,1.51,0,*49
1504980079.66,29392,15.31,73300.5,4.01,1.79,2.09,0,*7F
1504980080.92,29393,15.31,73298.3,4.01,2.25,2.47,0,*7E
1504980082.15,29394,15.31,73312.0,4.03,2.47,2.73,0,*78
1504980083.41,29395,15.31,73314.0,4.01,2.81,3.03,0,*77
1504980084.67,29396,15.31,73312.3,4.01,3.03,3.15,0,*78
1504980085.87,29397,15.31,73316.0,4.01,3.25,3.25,0,*7E
1504980087.08,29398,15.31,73316.5,4.01,3.25,3.29,0,*7D
1504980088.31,29399,15.31,73308.8,4.03,3.33,3.37,0,*76
1504980089.56,29400,15.31,73316.8,4.01,3.33,3.45,0,*76
1504980090.79,29401,15.31,73310.5,4.03,3.45,3.37,0,*71
1504980092.05,29402,15.31,73314.0,4.01,3.41,3.45,0,*71
1504980093.31,29403,15.31,73314.8,4.01,3.41,3.41,0,*74
1504980094.54,29404,15.31,73320.8,4.03,3.45,3.49,0,*7D
1504980095.77,29405,15.31,73318.8,4.03,3.45,3.49,0,*7C
1504980097.0,29406,15.31,73320.0,4.03,3.45,3.49,0,*7F
1504980098.22,29407,15.31,73322.8,4.03,3.49,3.45,0,*7E
1504980099.45,29408,15.31,73322.5,4.03,3.37,3.33,0,*79
1504980100.68,29409,15.31,73320.8,4.03,3.37,3.33,0,*78
1504980101.93,29410,15.31,73326.0,4.05,3.37,3.37,0,*72
1504980103.16,29411,15.31,73330.5,4.05,3.33,3.25,0,*74
1504980104.4,29412,15.31,73332.8,4.05,3.25,3.15,0,*73
1504980105.66,29413,15.31,73330.3,4.05,3.15,3.11,0,*75
1504980106.91,29414,15.31,73332.5,4.05,2.77,2.77,0,*76
1504980108.16,29415,15.31,73326.5,4.05,2.69,2.69,0,*77
1504980109.4,29416,15.31,73324.3,4.05,2.65,2.59,0,*7B
1504980110.65,29417,15.31,73320.8,4.05,2.77,2.77,0,*75
1504980111.91,29418,15.31,73324.0,4.05,2.89,2.89,0,*7A
1504980113.08,29419,15.31,73328.5,4.03,2.99,2.99,0,*7D
1504980114.32,29420,15.31,73330.8,4.03,3.07,3.07,0,*77
1504980115.54,29421,15.31,73334.3,4.03,3.11,3.19,0,*7E
1504980116.74,29422,15.31,73332.0,4.03,3.29,3.23,0,*7F
1504980117.97,29423,15.31,73328.5,4.03,3.11,3.07,0,*73
1504980119.19,29424,15.31,73328.8,4.03,3.19,3.11,0,*7B
1504980120.4,29425,15.31,73324.8,4.05,3.25,3.25,0,*74
1504980121.66,29426,15.31,73326.5,4.05,3.33,3.33,0,*77
1504980122.91,29427,15.31,73328.0,4.05,3.33,3.33,0,*76
1504980124.14,29428,15.31,73332.5,4.07,3.33,3.33,0,*7B
1504980125.37,29429,15.31,73332.3,4.05,3.33,3.25,0,*7F
1504980126.6,29430,15.31,73334.0,4.05,3.33,3.25,0,*77
1504980127.85,29431,15.31,73328.8,4.05,3.33,3.33,0,*71
1504980129.08,29432,15.31,73334.0,4.03,3.37,3.37,0,*74
1504980130.3,29433,15.31,73328.8,4.03,3.37,3.37,0,*75
1504980131.53,29434,15.31,73332.0,4.03,3.33,3.37,0,*76
1504980132.78,29435,15.31,73330.0,4.05,3.49,3.49,0,*75
1504980134.03,29436,15.31,73330.5,4.05,3.49,3.53,0,*7D
1504980135.28,29437,15.31,73332.8,4.05,3.49,3.49,0,*77
1504980136.52,29438,15.31,73336.8,4.07,3.41,3.49,0,*72
1504980137.74,29439,15.31,73338.8,4.07,3.49,3.49,0,*7B
1504980138.97,29440,15.31,73342.5,4.07,3.49,3.49,0,*75
1504980140.2,29441,15.31,73338.3,4.07,3.37,3.37,0,*74
1504980141.45,29442,15.31,73334.8,4.05,3.33,3.37,0,*71
1504980142.68,29443,15.31,73338.5,4.07,3.33,3.37,0,*72
1504980143.88,29444,15.31,73336.8,4.07,3.33,3.25,0,*76
1504980145.08,29445,15.31,73330.5,4.07,3.25,3.23,0,*76
1504980146.28,29446,15.31,73336.0,4.07,3.33,3.25,0,*74
1504980147.51,29447,15.31,73334.8,4.07,3.37,3.33,0,*76
1504980148.78,29448,15.31,73330.3,4.09,3.41,3.41,0,*73
1504980150.01,29449,15.31,73334.3,4.11,3.41,3.41,0,*7B
1504980151.24,29450,15.31,73334.3,4.07,3.37,3.37,0,*74
1504980152.45,29451,15.31,73332.8,4.07,2.99,3.03,0,*77
1504980153.63,29452,15.31,73334.0,4.07,2.91,2.99,0,*7E
1504980154.86,29453,15.31,73328.5,4.09,3.03,2.95,0,*77
1504980156.09,29454,15.31,73320.8,4.09,2.69,2.61,0,*76
1504980157.32,29455,15.31,73322.5,4.09,2.61,2.69,0,*77
1504980158.54,29456,15.31,73324.3,4.07,2.55,2.55,0,*72
1504980159.76,29457,15.31,73324.5,4.05,2.65,2.65,0,*71
1504980160.98,29458,15.31,73320.5,4.07,2.55,2.55,0,*7C
1504980162.21,29459,15.31,73324.0,4.05,2.65,2.69,0,*73
1504980163.47,29460,15.31,73326.0,4.05,2.69,2.69,0,*75
1504980164.69,29461,15.31,73314.3,4.07,2.77,2.77,0,*76
1504980165.92,29462,15.31,73316.0,4.07,2.69,2.69,0,*75
1504980167.15,29463,15.31,73320.3,4.05,2.59,2.65,0,*79
1504980168.41,29464,15.31,73322.5,4.05,2.89,2.81,0,*79
1504980169.61,29465,15.31,73324.5,4.05,2.99,2.99,0,*70
1504980170.82,29466,15.31,73316.5,4.05,2.99,2.99,0,*73
1504980172.03,29467,15.31,73320.0,4.05,2.91,2.99,0,*7A
1504980173.26,29468,15.31,73318.0,4.07,2.81,2.81,0,*7F
1504980174.49,29469,15.31,73322.0,4.05,2.65,2.69,0,*70
1504980175.71,29470,15.31,73318.5,4.03,2.73,2.85,0,*7B
1504980176.94,29471,15.31,73322.8,4.03,2.89,2.89,0,*73
1504980178.17,29472,15.31,73324.0,4.03,3.07,3.11,0,*77
1504980179.37,29473,15.31,73318.3,4.03,2.89,2.95,0,*7C
1504980180.54,29474,15.31,73328.3,4.03,2.95,2.95,0,*76
1504980181.72,29475,15.31,73326.3,4.03,2.95,2.99,0,*7B
1504980182.94,29476,15.31,73322.8,4.03,3.11,3.19,0,*7C
1504980184.14,29477,15.31,73330.8,4.03,2.99,3.07,0,*73
1504980185.37,29478,15.31,73320.5,4.03,3.07,3.07,0,*7A
1504980186.59,29479,15.31,73304.5,4.03,3.19,3.19,0,*7B
1504980187.82,29480,15.31,73332.3,4.03,3.11,3.23,0,*7C
1504980189.04,29481,15.31,73316.8,4.03,3.19,3.23,0,*75
1504980190.21,29482,15.31,73318.5,4.03,3.29,3.29,0,*7F
1504980191.47,29483,15.31,73320.3,4.05,3.33,3.37,0,*7C
1504980192.73,29484,15.31,73322.5,4.05,3.37,3.41,0,*7E
1504980193.97,29485,15.31,73330.8,4.07,3.41,3.41,0,*7C
1504980195.19,29486,15.31,73326.0,4.07,3.37,3.37,0,*7F
1504980196.45,29487,15.31,73324.0,4.05,3.33,3.37,0,*78
1504980197.7,29488,15.31,73334.3,4.05,3.33,3.37,0,*77
1504980198.91,29489,15.31,73344.0,4.07,3.25,3.33,0,*77
1504980200.16,29490,15.31,73348.0,4.05,3.33,3.33,0,*7A
1504980201.34,29491,15.31,73346.3,4.07,3.25,3.25,0,*79
1504980202.52,29492,15.31,73340.8,4.07,3.25,3.25,0,*7A
1504980203.78,29493,15.31,73338.3,4.05,3.33,3.33,0,*79
1504980204.99,29494,15.31,73342.0,4.05,3.25,3.25,0,*7E
1504980206.19,29495,15.31,73330.0,4.07,3.33,3.25,0,*7A
1504980207.37,29496,15.31,73356.0,4.07,3.25,3.25,0,*7E
1504980208.59,29497,15.31,73384.0,4.07,3.33,3.37,0,*7B
1504980209.86,29498,15.31,73354.8,4.09,3.15,3.07,0,*7D
1504980211.12,29499,15.31,73324.3,4.09,3.07,3.03,0,*7B
1504980212.35,29500,15.31,73320.5,4.07,3.23,3.15,0,*75
1504980213.53,29501,15.31,73306.0,4.07,3.25,3.25,0,*71
1504980214.76,29502,15.31,73322.0,4.07,3.33,3.33,0,*72
1504980215.99,29503,15.31,73326.0,4.07,3.33,3.33,0,*73
1504980217.23,29504,15.31,73326.5,4.07,3.15,3.11,0,*70
1504980218.47,29505,15.31,73342.5,4.07,3.15,3.15,0,*75
1504980219.7,29506,15.31,73346.0,4.07,3.23,3.11,0,*77
1504980220.93,29507,15.31,73352.8,4.07,3.15,3.23,0,*72
1504980222.13,29508,15.31,73364.8,4.07,3.33,3.25,0,*7F
1504980223.36,29509,15.31,73350.3,4.07,3.03,3.03,0,*79
1504980224.6,29510,15.31,73348.3,4.07,2.81,2.81,0,*71
1504980225.82,29511,15.31,73344.0,4.09,2.73,2.91,0,*72
1504980227.06,29512,15.31,73342.3,4.09,2.61,2.81,0,*73
1504980228.26,29513,15.31,73330.0,4.07,2.89,2.91,0,*7B
1504980229.44,29514,15.31,73336.8,4.07,2.91,2.99,0,*7D
1504980230.62,29515,15.31,73356.8,4.07,2.91,2.99,0,*7C
1504980231.83,29516,15.31,73356.3,4.07,2.91,3.03,0,*7D
1504980233.06,29517,15.31,73344.3,4.07,2.69,2.81,0,*70
1504980234.28,29518,15.31,73346.0,4.07,2.69,2.69,0,*79
1504980235.54,29519,15.31,73346.3,4.09,3.03,3.03,0,*76
1504980236.77,29520,15.31,73346.5,4.07,3.03,3.15,0,*75
1504980237.95,29521,15.31,73344.0,4.07,2.91,2.91,0,*73
1504980239.19,29522,15.31,73342.8,4.07,3.11,3.11,0,*70
1504980240.42,29523,15.31,73350.0,4.07,3.11,3.15,0,*75
1504980241.65,29524,15.31,73348.3,4.07,3.15,3.23,0,*73
1504980242.89,29525,15.31,73354.3,4.07,3.15,3.15,0,*77
1504980244.13,29526,15.31,73350.0,4.07,3.03,3.03,0,*74
1504980245.3,29527,15.31,73344.3,4.07,2.99,2.99,0,*75
1504980246.51,29528,15.31,73340.5,4.05,2.99,2.91,0,*70
1504980247.74,29529,15.31,73342.0,4.07,3.03,3.11,0,*78
1504980249.0,29530,15.31,73346.0,4.09,3.07,3.07,0,*7D
1504980250.26,29531,15.31,73340.3,4.09,3.07,3.03,0,*78
1504980251.44,29532,15.31,73342.0,4.07,2.99,2.99,0,*71
1504980252.62,29533,15.31,73348.0,4.07,2.99,2.99,0,*70
1504980253.8,29534,15.31,73346.0,4.07,2.91,2.99,0,*7F
1504980255.03,29535,15.31,73348.5,4.07,2.89,2.89,0,*76
1504980256.24,29536,15.31,73350.3,4.07,2.91,2.81,0,*74
1504980257.42,29537,15.31,73350.5,4.07,2.91,2.91,0,*74
1504980258.68,29538,15.31,73352.0,4.05,3.11,3.03,0,*7A
1504980259.91,29539,15.31,73356.3,4.07,3.11,3.11,0,*7A
1504980261.15,29540,15.31,73352.0,4.07,3.11,3.15,0,*70
1504980262.38,29541,15.31,73352.8,4.07,3.23,3.15,0,*70
1504980263.62,29542,15.31,73350.5,4.07,3.15,3.15,0,*76
1504980264.85,29543,15.31,73354.5,4.07,3.03,3.11,0,*74
1504980266.09,29544,15.25,73350.0,4.07,3.11,3.15,0,*74
1504980267.32,29545,15.31,73348.3,4.07,3.03,3.15,0,*76
1504980268.55,29546,15.31,73344.5,4.07,3.23,3.23,0,*72
1504980269.79,29547,15.31,73344.0,4.07,3.15,3.15,0,*73
1504980271.02,29548,15.31,73342.5,4.07,3.11,3.11,0,*7C
1504980272.25,29549,15.31,73340.3,4.09,3.19,3.25,0,*7C
1504980273.48,29550,15.31,73340.3,4.09,3.19,3.25,0,*74
1504980274.68,29551,15.31,73338.8,4.09,3.25,3.25,0,*7A
1504980275.94,29552,15.31,73332.0,4.09,3.15,3.19,0,*75
1504980277.2,29553,15.31,73336.3,4.09,3.15,3.19,0,*74
1504980278.43,29554,15.31,73338.3,4.07,3.15,3.23,0,*74
1504980279.66,29555,15.31,73338.0,4.07,3.23,3.15,0,*75
1504980280.86,29556,15.31,73332.0,4.07,3.25,3.23,0,*75
1504980282.1,29557,15.31,73338.0,4.05,3.25,3.33,0,*77
1504980283.33,29558,15.31,73334.5,4.09,3.37,3.29,0,*7C
1504980284.54,29559,15.31,73332.5,4.09,3.25,3.25,0,*72
1504980285.77,29560,15.31,73334.0,4.09,3.37,3.29,0,*77
1504980286.97,29561,15.31,73334.5,4.09,3.29,3.29,0,*79
1504980288.16,29562,15.31,73328.8,4.07,3.25,3.25,0,*74
1504980289.38,29563,15.31,73328.3,4.07,3.33,3.33,0,*75
1504980290.62,29564,15.31,73328.3,4.05,3.25,3.15,0,*73
1504980291.83,29565,15.31,73330.5,4.09,3.29,3.29,0,*7D
1504980293.03,29566,15.31,73326.3,4.09,3.29,3.29,0,*7E
1504980294.28,29567,15.31,73328.0,4.09,3.19,3.19,0,*7F
1504980295.51,29568,15.31,73326.8,4.09,3.25,3.19,0,*7F
1504980296.74,29569,15.31,73328.3,4.09,3.25,3.19,0,*7E
1504980297.98,29570,15.25,73326.3,4.09,3.19,3.19,0,*79
1504980299.19,29571,15.31,73326.5,4.09,3.29,3.25,0,*74
1504980300.4,29572,15.31,73326.0,4.07,3.25,3.33,0,*72
1504980301.61,29573,15.31,73330.8,4.07,3.25,3.33,0,*73
1504980302.81,29574,15.31,73328.5,4.09,3.29,3.29,0,*7D
1504980304.08,29575,15.31,73334.8,4.09,3.07,3.07,0,*7C
1504980305.31,29576,15.31,73332.5,4.09,3.03,2.95,0,*71
1504980306.57,29577,15.31,73334.5,4.09,3.15,3.03,0,*79
1504980307.8,29578,15.31,73332.8,4.09,3.25,3.19,0,*7E
1504980309.06,29579,15.31,73334.8,4.09,3.15,3.07,0,*73
1504980310.24,29580,15.25,73328.8,4.07,2.99,2.99,0,*78
1504980311.47,29581,15.31,73338.5,4.09,2.91,2.85,0,*72
1504980312.67,29582,15.31,73334.3,4.09,2.95,2.91,0,*70
1504980313.9,29583,15.25,73328.3,4.09,3.03,2.95,0,*7B
1504980315.16,29584,15.31,73332.5,4.09,3.03,3.03,0,*72
1504980316.42,29585,15.31,73326.3,4.09,3.07,3.07,0,*73
1504980317.66,29586,15.31,73328.3,4.07,3.23,3.11,0,*7F
1504980318.88,29587,15.31,73330.0,4.07,3.23,3.23,0,*7F
1504980320.09,29588,15.31,73330.0,4.07,3.15,3.25,0,*73
1504980321.32,29589,15.31,73328.0,4.07,3.23,3.23,0,*71
1504980322.52,29590,15.31,73324.5,4.07,3.25,3.23,0,*7F
1504980323.76,29591,15.31,73328.8,4.07,3.15,3.15,0,*78
1504980325.0,29592,15.31,73330.0,4.07,3.15,3.15,0,*7B
1504980326.21,29593,15.31,73334.3,4.07,3.23,3.25,0,*7C
1504980327.41,29594,15.31,73332.3,4.11,3.29,3.37,0,*75
1504980328.62,29595,15.31,73332.0,4.09,3.29,3.29,0,*72
1504980329.87,29596,15.31,73330.5,4.09,3.37,3.37,0,*71
1504980331.13,29597,15.31,73324.8,4.09,3.37,3.45,0,*75
1504980332.31,29598,15.31,73326.3,4.11,3.29,3.29,0,*76
1504980333.57,29599,15.31,73332.0,4.09,3.37,3.41,0,*7F
1504980334.81,29600,15.31,73334.5,4.11,3.41,3.41,0,*74
1504980336.05,29601,15.31,73336.3,4.11,3.41,3.41,0,*75
1504980337.28,29602,15.31,73326.0,4.11,3.41,3.45,0,*72
1504980338.51,29603,15.31,73330.3,4.11,3.37,3.45,0,*72
1504980339.75,29604,15.31,73336.3,4.11,3.37,3.41,0,*71
1504980341.0,29605,15.31,73342.5,4.09,3.37,3.37,0,*78
1504980342.18,29606,15.31,73334.8,4.11,2.95,2.95,0,*72
1504980343.42,29607,15.31,73328.0,4.09,3.15,3.25,0,*79
1504980344.65,29608,15.31,73324.8,4.09,3.29,3.37,0,*7A
1504980345.83,29609,15.31,73326.0,4.11,3.25,3.29,0,*71
1504980347.04,29610,15.31,73328.5,4.09,3.29,3.29,0,*7C
1504980348.28,29611,15.25,73326.3,4.09,3.19,3.19,0,*7D
1504980349.51,29612,15.25,73320.8,4.09,3.19,3.25,0,*71
1504980350.75,29613,15.31,73326.3,4.11,3.07,3.03,0,*72
1504980351.95,29614,15.25,73334.5,4.09,2.91,2.95,0,*7C
1504980353.18,29615,15.31,73332.0,4.11,1.97,2.01,0,*7C
1504980354.43,29616,15.31,73320.0,4.09,1.59,1.71,0,*70
1504980355.69,29617,15.31,73314.3,4.09,1.97,2.13,0,*74
1504980356.96,29618,15.31,73320.5,4.05,2.17,2.17,0,*78
1504980358.2,29619,15.31,73318.0,4.05,1.59,1.47,0,*76
1504980359.47,29620,15.31,73320.8,4.05,1.33,1.25,0,*74
1504980360.73,29621,15.31,73320.3,4.05,2.17,2.17,0,*72
1504980361.93,29622,15.31,73316.0,4.01,2.31,2.31,0,*75
1504980363.16,29623,15.31,73308.3,4.03,2.51,2.47,0,*71
1504980364.36,29624,15.31,73310.8,4.03,2.61,2.59,0,*7A
1504980365.59,29625,15.31,73308.8,4.01,2.73,2.61,0,*71
1504980366.85,29626,15.31,73316.8,4.05,2.89,2.89,0,*75
1504980368.06,29627,15.31,73320.5,4.03,2.91,3.03,0,*78
1504980369.28,29628,15.31,73324.0,4.03,3.23,3.23,0,*7D
1504980370.48,29629,15.31,73322.5,4.03,3.23,3.29,0,*76
1504980371.69,29630,15.31,73310.5,4.03,3.23,3.29,0,*7E
1504980372.87,29631,15.31,73316.3,4.03,3.29,3.29,0,*75
1504980374.13,29632,15.31,73322.8,4.05,3.41,3.37,0,*71
1504980375.35,29633,15.31,73320.3,4.03,3.33,3.33,0,*77
1504980376.58,29634,15.31,73316.3,4.07,3.37,3.37,0,*74
1504980377.84,29635,15.31,73318.0,4.05,3.33,3.33,0,*77
1504980379.09,29636,15.31,73308.8,4.05,3.37,3.33,0,*70
1504980380.35,29637,15.31,73312.5,4.05,3.23,3.23,0,*75
1504980381.61,29638,15.31,73332.0,4.05,3.33,3.41,0,*7F
1504980382.87,29639,15.31,73332.8,4.05,3.41,3.37,0,*7A
1504980384.1,29640,15.31,73332.0,4.07,3.37,3.41,0,*76
1504980385.36,29641,15.31,73320.8,4.05,3.37,3.41,0,*75
1504980386.59,29642,15.31,73326.8,4.07,3.37,3.37,0,*75
1504980387.82,29643,15.31,73326.8,4.07,3.41,3.37,0,*75
1504980389.05,29644,15.31,73338.0,4.07,3.49,3.49,0,*73
1504980390.28,29645,15.31,73328.3,4.07,3.41,3.37,0,*73
1504980391.51,29646,15.31,73320.0,4.07,3.37,3.41,0,*70
1504980392.74,29647,15.31,73312.5,4.07,3.33,3.37,0,*74
1504980393.97,29648,15.31,73328.5,4.07,3.33,3.33,0,*7F
1504980395.2,29649,15.31,73326.0,4.07,3.33,3.33,0,*7E
1504980396.4,29650,15.31,73342.3,4.07,3.25,3.23,0,*70
1504980397.58,29651,15.31,73328.5,4.07,3.25,3.25,0,*77
1504980398.81,29652,15.31,73336.8,4.07,3.33,3.33,0,*74
1504980400.05,29653,15.31,73346.0,4.07,3.41,3.41,0,*75
1504980401.28,29654,15.25,73340.5,4.07,3.37,3.41,0,*73
1504980402.54,29655,15.31,73336.0,4.09,3.45,3.41,0,*79
1504980403.8,29656,15.31,73336.5,4.09,3.41,3.45,0,*7A
1504980405.07,29657,15.31,73336.0,4.09,3.41,3.41,0,*7F
1504980406.3,29658,15.31,73338.0,4.11,3.45,3.41,0,*7D
1504980407.56,29659,15.31,73330.8,4.09,3.45,3.45,0,*71
1504980408.82,29660,15.31,73340.0,4.09,3.45,3.41,0,*7F
1504980410.03,29661,15.31,73334.0,4.11,3.41,3.29,0,*7D
1504980411.23,29662,15.31,73326.8,4.11,3.19,3.25,0,*7F
1504980412.48,29663,15.31,73318.5,4.09,3.37,3.37,0,*78
1504980413.72,29664,15.31,73324.0,4.11,3.41,3.37,0,*77
1504980414.92,29665,15.31,73328.5,4.11,3.37,3.25,0,*74
1504980416.17,29666,15.31,73316.0,4.09,3.37,3.19,0,*71
1504980417.35,29667,15.31,73326.3,4.11,3.25,2.91,0,*7B
1504980418.57,29668,15.31,73338.0,4.11,3.19,2.73,0,*77
1504980419.81,29669,15.31,73334.0,4.11,3.15,2.69,0,*71
1504980421.04,29670,15.31,73334.5,4.11,3.07,2.81,0,*7C
1504980422.3,29671,15.31,73322.3,4.09,3.07,2.85,0,*70
1504980423.57,29672,15.31,73320.8,4.09,3.15,3.03,0,*7F
1504980424.79,29673,15.31,73332.5,4.11,3.19,3.03,0,*7B
1504980426.02,29674,15.31,73306.5,4.11,2.59,2.55,0,*7B
1504980427.28,29675,15.31,73318.8,4.09,2.85,2.81,0,*7B
1504980428.54,29676,15.31,73318.8,4.09,3.07,3.03,0,*78
1504980429.81,29677,15.31,73324.8,4.09,3.15,3.03,0,*7A
1504980431.03,29678,15.31,73322.8,4.11,3.19,3.19,0,*7B
1504980432.21,29679,15.25,73322.3,4.11,3.25,3.29,0,*76
1504980433.46,29680,15.25,73330.3,4.09,2.69,2.69,0,*75
1504980434.7,29681,15.25,73328.5,4.07,2.17,2.17,0,*7A
1504980435.91,29682,15.31,73332.0,4.07,2.59,2.65,0,*76
1504980437.14,29683,15.31,73330.8,4.07,2.89,2.89,0,*78
1504980438.37,29684,15.25,73330.3,4.07,3.15,3.11,0,*7B
1504980439.6,29685,15.31,73330.3,4.07,3.33,3.33,0,*7E
1504980440.78,29686,15.31,73328.5,4.07,3.25,3.25,0,*7D
1504980442.01,29687,15.25,73330.3,4.07,3.23,3.11,0,*7D
1504980443.22,29688,15.31,73332.5,4.07,3.25,3.33,0,*74
1504980444.45,29689,15.31,73334.0,4.07,3.33,3.33,0,*72
1504980445.68,29690,15.31,73334.0,4.09,3.29,3.37,0,*7B
1504980446.86,29691,15.25,73330.8,4.11,2.91,2.95,0,*78
1504980448.09,29692,15.25,73330.5,4.11,3.03,3.03,0,*7F
1504980449.32,29693,15.25,73328.0,4.11,3.03,3.07,0,*7A
1504980450.54,29694,15.25,73332.8,4.11,3.19,3.19,0,*79
1504980451.75,29695,15.31,73334.8,4.09,3.25,3.25,0,*71
1504980452.93,29696,15.31,73336.0,4.11,3.29,3.29,0,*7B
1504980454.11,29697,15.25,73334.3,4.11,3.29,3.29,0,*7A
1504980455.32,29698,15.25,73330.5,4.09,3.25,3.25,0,*7C
1504980456.53,29699,15.25,73328.5,4.11,2.91,3.03,0,*7E
1504980457.76,29700,15.25,73328.8,4.09,3.19,3.25,0,*73
1504980458.96,29701,15.25,73330.0,4.09,3.25,3.25,0,*7D
1504980460.14,29702,15.31,73328.3,4.11,3.29,3.29,0,*77
1504980461.37,29703,15.31,73328.5,4.11,3.37,3.37,0,*76
1504980462.63,29704,15.31,73328.5,4.09,3.37,3.37,0,*78
1504980463.89,29705,15.31,73328.8,4.09,3.41,3.41,0,*79
1504980465.15,29706,15.31,73330.0,4.09,3.41,3.41,0,*7A
1504980466.38,29707,15.25,73328.8,4.11,3.37,3.37,0,*72
1504980467.61,29708,15.31,73330.8,4.11,3.37,3.37,0,*7D
1504980468.84,29709,15.31,73334.5,4.11,3.37,3.37,0,*7C
1504980470.04,29710,15.31,73338.8,4.11,3.19,3.29,0,*77
1504980471.26,29711,15.31,73332.0,4.11,3.37,3.37,0,*75
1504980472.49,29712,15.31,73338.0,4.11,3.37,3.37,0,*76
1504980473.72,29713,15.25,73334.0,4.11,3.37,3.37,0,*77
1504980474.97,29714,15.25,73336.3,4.09,3.37,3.37,0,*79
1504980476.2,29715,15.25,73334.5,4.11,3.37,3.37,0,*71
1504980477.44,29716,15.25,73334.5,4.11,3.37,3.41,0,*73
1504980478.64,29717,15.31,73338.0,4.09,3.29,3.29,0,*7A
1504980479.87,29718,15.31,73336.0,4.11,3.37,3.37,0,*7C
1504980481.12,29719,15.31,73336.0,4.13,3.33,3.33,0,*7F
1504980482.35,29720,15.31,73336.5,4.13,3.29,3.33,0,*7E
1504980483.59,29721,15.25,73336.0,4.13,3.23,3.29,0,*7E
1504980484.82,29722,15.31,73338.0,4.11,3.15,3.15,0,*75
1504980486.06,29723,15.25,73334.0,4.11,3.07,3.15,0,*77
1504980487.24,29724,15.31,73338.3,4.11,3.25,3.25,0,*73
1504980488.45,29725,15.31,73338.8,4.11,3.29,3.37,0,*7D
1504980489.63,29726,15.31,73342.0,4.11,3.29,3.29,0,*71
1504980490.86,29727,15.25,73332.8,4.13,3.29,3.41,0,*7C
1504980492.05,29728,15.31,73338.0,4.11,3.29,3.29,0,*7F
1504980493.25,29729,15.25,73336.3,4.09,3.29,3.29,0,*77
1504980494.43,29730,15.31,73338.5,4.11,3.25,3.25,0,*76
1504980495.62,29731,15.31,73336.0,4.11,3.29,3.29,0,*77
1504980496.8,29732,15.31,73336.8,4.11,3.25,3.25,0,*74
1504980498.02,29733,15.31,73334.0,4.11,3.19,3.19,0,*75
1504980499.24,29734,15.31,73330.8,4.11,3.19,3.19,0,*72
1504980500.47,29735,15.31,73328.5,4.11,3.15,3.07,0,*70
1504980501.71,29736,15.31,73328.0,4.11,3.07,3.15,0,*73
1504980502.96,29737,15.25,73326.5,4.13,3.11,3.19,0,*7B
1504980504.2,29738,15.25,73322.8,4.11,3.07,3.15,0,*7D
1504980505.43,29739,15.31,73320.8,4.11,3.03,3.07,0,*7B
1504980506.66,29740,15.31,73328.5,4.11,3.07,3.07,0,*71
1504980507.89,29741,15.31,73326.3,4.11,2.81,2.73,0,*7D
1504980509.08,29742,15.31,73306.8,4.11,2.61,2.61,0,*73
1504980510.31,29743,15.31,73322.3,4.09,2.55,2.61,0,*7C
1504980511.54,29744,15.25,73318.3,4.09,2.13,2.31,0,*7C
1504980512.74,29745,15.31,73318.5,4.11,2.25,2.35,0,*75
1504980513.97,29746,15.31,73316.5,4.09,1.37,1.41,0,*7F
1504980515.21,29747,15.31,73330.0,4.09,-0.73,-0.23,0,*7A
1504980516.43,29748,15.31,73314.8,4.07,-0.23,0.25,0,*55
1504980517.64,29749,15.31,73316.0,4.05,-0.45,-0.11,0,*7C
1504980518.87,29750,15.31,73312.8,4.05,-0.11,0.25,0,*5F
1504980520.09,29751,15.31,73320.8,4.03,0.55,0.91,0,*7A
1504980521.32,29752,15.31,73314.3,4.03,1.21,1.51,0,*76
1504980522.54,29753,15.31,73318.0,4.03,1.51,1.67,0,*75
1504980523.74,29754,15.25,73318.3,4.03,1.43,1.83,0,*7B
1504980524.94,29755,15.25,73324.0,4.03,1.67,2.27,0,*71
1504980526.16,29756,15.31,73326.3,4.03,2.05,2.47,0,*73
1504980527.4,29757,15.31,73316.8,4.03,2.39,2.51,0,*7A
1504980528.63,29758,15.25,73314.5,4.03,2.39,2.51,0,*75
1504980529.86,29759,15.31,73316.0,4.03,2.47,2.55,0,*79
1504980531.08,29760,15.31,73316.0,4.03,2.47,2.55,0,*73
1504980532.34,29761,15.31,73318.0,4.01,2.47,2.59,0,*7C
1504980533.58,29762,15.31,73322.3,3.99,2.47,2.51,0,*71
1504980534.81,29763,15.25,73306.8,4.01,2.35,2.47,0,*74